Zurück zum Katalog

DELTA 1 DEB

AktivPO
NORAD 21445·DEBRIS·🇺🇸 United States

Gestartet Jun 12, 1975 von Vandenberg Space Force Base

Loading…

Nächste Überflüge (nächste 24 Stunden)

TLE

AktuellSource: Space-Track

Epoche: Sep 13, 2026, 13:54 UTC

1 21445U 75052ED  26256.57919897 -.00000010  00000-0  66194-4 0  9993
2 21445  99.6505 266.5855 0080778 235.3317 249.5228 13.28574857714478

Verfolge DELTA 1 DEB in Echtzeit mit AllMySat

Download on the App Store